Location: Oshawa
(43.9000°N, 78.8670°W)
Time: 18:06:31
(UTC-04:00)

CARTOSAT-1 - Visible Passes

Search period start: 28 May 2016 00:00
Search period end: 07 June 2016 00:00
Orbit: 617 x 619 km, 97.9° (Epoch: 28 May)

Date Brightness Start Highest point End Pass type
(mag) Time Alt. Az. Time Alt. Az. Time Alt. Az.
28 May 5.1 22:11:13 15° ESE 22:13:39 23° ENE 22:17:04 10° NNE visible
28 May 4.7 23:48:21 29° SW 23:49:32 34° W 23:53:31 10° NNW visible
29 May 4.5 22:28:08 21° ESE 22:30:18 33° ENE 22:34:12 10° N visible
30 May 5.2 00:05:16 21° WSW 00:06:26 23° W 00:09:55 10° NW visible
30 May 4.0 22:45:04 28° SE 22:47:00 50° ENE 22:51:12 10° N visible
31 May 5.7 00:22:12 14° WSW 00:23:21 16° W 00:26:01 10° NW visible
31 May 3.5 23:02:00 35° SSE 23:03:44 76° ENE 23:08:05 10° N visible
01 Jun 6.1 00:39:37 10° W 00:40:20 10° W 00:41:03 10° WNW visible
01 Jun 5.8 21:43:09 10° E 21:45:02 13° ENE 21:46:53 10° NE visible
01 Jun 3.6 23:18:56 38° S 23:20:31 72° WSW 23:24:52 10° NNW visible
02 Jun 5.4 21:58:44 10° ESE 22:01:37 18° ENE 22:04:33 10° NNE visible
02 Jun 4.2 23:35:52 33° SSW 23:37:20 47° W 23:41:31 10° NNW visible
03 Jun 4.9 22:15:40 15° ESE 22:18:14 26° ENE 22:21:48 10° NNE visible
03 Jun 4.9 23:52:47 25° SW 23:54:12 31° W 23:58:03 10° NNW visible
04 Jun 4.4 22:32:36 21° ESE 22:34:54 37° ENE 22:38:54 10° N visible
05 Jun 5.4 00:09:43 18° WSW 00:11:05 21° W 00:14:24 10° NW visible
05 Jun 3.8 22:49:32 28° SE 22:51:37 55° ENE 22:55:51 10° N visible
06 Jun 5.8 00:26:39 13° WSW 00:28:02 14° W 00:30:22 10° WNW visible
06 Jun 3.5 23:06:28 33° SSE 23:08:21 84° ENE 23:12:42 10° NNW visible
